N978PJ GBYD-TNCM

Flight info

Callsign N978PJ
Flight time 6h 15m
Altitude 47000
Route GBYD/32 PIVSA 14N/024W 15N/029W 15N/035W 16N/040W 16N/046W 17N/051W 17N/057W 17N/059W 17N/061W NAKAL ELOPO RNV10 ELOPO TNCM/10
Aircraft C750/M-SDE3FGIJ1KRWXY/LB1

Departure

Time 2026-04-23 08:10
Airport Banjul International Airport (GBYD)

Arrival

Time 2026-04-23 14:25
Airport Princess Juliana International Airport (TNCM)
Time Latitude Longitude Altitude Speed Heading
2026-04-23 07:19 13.34120 -16.65129 87 ft 0 kts 132°
2026-04-23 07:51 13.34135 -16.65146 89 ft 4 kts 132°
2026-04-23 07:52 13.34150 -16.65166 87 ft 4 kts 126°
2026-04-23 07:52 13.34165 -16.65186 89 ft 4 kts 143°
2026-04-23 07:52 13.34188 -16.65191 88 ft 4 kts 202°
2026-04-23 07:52 13.34184 -16.65199 89 ft 3 kts 221°
2026-04-23 07:53 13.34183 -16.65200 89 ft 0 kts 220°
2026-04-23 07:56 13.34177 -16.65205 91 ft 5 kts 220°
2026-04-23 07:56 13.34130 -16.65246 87 ft 11 kts 220°
2026-04-23 07:56 13.34069 -16.65282 89 ft 8 kts 170°
2026-04-23 07:57 13.34032 -16.65247 88 ft 7 kts 129°
2026-04-23 07:57 13.34006 -16.65214 87 ft 5 kts 129°
2026-04-23 07:57 13.33977 -16.65193 87 ft 5 kts 158°
2026-04-23 07:57 13.33940 -16.65196 89 ft 6 kts 207°
2026-04-23 07:58 13.33910 -16.65220 89 ft 4 kts 220°
2026-04-23 07:58 13.33908 -16.65222 89 ft 0 kts 220°
2026-04-23 08:05 13.33905 -16.65224 87 ft 3 kts 220°
2026-04-23 08:06 13.33860 -16.65263 86 ft 13 kts 216°
2026-04-23 08:06 13.33791 -16.65232 86 ft 13 kts 134°
2026-04-23 08:06 13.33726 -16.65156 86 ft 16 kts 129°
2026-04-23 08:06 13.33644 -16.65057 87 ft 20 kts 131°
2026-04-23 08:07 13.33543 -16.64936 87 ft 24 kts 130°
2026-04-23 08:07 13.33422 -16.64792 85 ft 29 kts 130°
2026-04-23 08:07 13.33282 -16.64625 87 ft 33 kts 131°
2026-04-23 08:07 13.33123 -16.64434 88 ft 37 kts 130°
2026-04-23 08:08 13.32944 -16.64221 88 ft 40 kts 130°
2026-04-23 08:08 13.32881 -16.64058 87 ft 19 kts 88°
2026-04-23 08:08 13.32848 -16.63947 87 ft 16 kts 163°
2026-04-23 08:08 13.32751 -16.63978 85 ft 18 kts 258°
2026-04-23 08:09 13.32789 -16.64037 87 ft 0 kts 311°
2026-04-23 08:09 13.32909 -16.64181 88 ft 72 kts 310°
2026-04-23 08:10 13.33432 -16.64803 88 ft 147 kts 310°
2026-04-23 08:10 13.34164 -16.65693 218 ft 176 kts 310°
2026-04-23 08:10 13.35631 -16.67369 973 ft 204 kts 313°
2026-04-23 08:11 13.36623 -16.68579 1102 ft 243 kts 311°
2026-04-23 08:11 13.37699 -16.69967 1983 ft 240 kts 311°
2026-04-23 08:11 13.38621 -16.71360 3029 ft 239 kts 300°
2026-04-23 08:11 13.39299 -16.72918 3874 ft 238 kts 295°
2026-04-23 08:12 13.39935 -16.74494 4686 ft 242 kts 295°
2026-04-23 08:12 13.40587 -16.76117 5353 ft 249 kts 295°
2026-04-23 08:12 13.41259 -16.77775 6030 ft 255 kts 294°
2026-04-23 08:12 13.41968 -16.79475 6659 ft 262 kts 295°
2026-04-23 08:13 13.42707 -16.81204 7404 ft 266 kts 295°
2026-04-23 08:13 13.43467 -16.82956 8169 ft 271 kts 295°
2026-04-23 08:13 13.44252 -16.84737 8951 ft 277 kts 295°
2026-04-23 08:13 13.45062 -16.86550 9712 ft 282 kts 295°
2026-04-23 08:14 13.45895 -16.88394 10363 ft 286 kts 295°
2026-04-23 08:14 13.46745 -16.90245 11096 ft 287 kts 295°
2026-04-23 08:14 13.47608 -16.92097 11834 ft 288 kts 295°
2026-04-23 08:14 13.48486 -16.93955 12559 ft 289 kts 295°
2026-04-23 08:15 13.49373 -16.95812 13293 ft 290 kts 295°
2026-04-23 08:15 13.50274 -16.97678 14002 ft 292 kts 295°
2026-04-23 08:15 13.51182 -16.99547 14668 ft 292 kts 295°
2026-04-23 08:15 13.52085 -17.01419 15222 ft 293 kts 295°
2026-04-23 08:16 13.52988 -17.03302 15782 ft 294 kts 295°
2026-04-23 08:16 13.53886 -17.05189 16376 ft 294 kts 295°
2026-04-23 08:16 13.54783 -17.07085 16972 ft 295 kts 295°
2026-04-23 08:16 13.55677 -17.08987 17578 ft 296 kts 295°
2026-04-23 08:17 13.56568 -17.10893 18212 ft 296 kts 295°
2026-04-23 08:17 13.57459 -17.12810 18732 ft 298 kts 295°
2026-04-23 08:17 13.58357 -17.14739 19252 ft 300 kts 295°
2026-04-23 08:17 13.59265 -17.16679 19763 ft 303 kts 295°
2026-04-23 08:18 13.60186 -17.18635 20285 ft 305 kts 295°
2026-04-23 08:18 13.61117 -17.20604 20814 ft 308 kts 295°
2026-04-23 08:18 13.62061 -17.22590 21342 ft 310 kts 295°
2026-04-23 08:18 13.63013 -17.24587 21872 ft 312 kts 295°
2026-04-23 08:19 13.63976 -17.26599 22401 ft 315 kts 295°
2026-04-23 08:19 13.64949 -17.28624 22944 ft 317 kts 295°
2026-04-23 08:19 13.65933 -17.30666 23463 ft 320 kts 295°
2026-04-23 08:19 13.66926 -17.32727 23921 ft 322 kts 295°
2026-04-23 08:20 13.67926 -17.34800 24381 ft 324 kts 295°
2026-04-23 08:20 13.68929 -17.36883 24837 ft 326 kts 295°
2026-04-23 08:20 13.69934 -17.38979 25285 ft 328 kts 295°
2026-04-23 08:20 13.70944 -17.41093 25744 ft 330 kts 295°
2026-04-23 08:21 13.71958 -17.43218 26208 ft 332 kts 295°
2026-04-23 08:21 13.72978 -17.45359 26663 ft 334 kts 295°
2026-04-23 08:21 13.74002 -17.47512 27118 ft 336 kts 295°
2026-04-23 08:21 13.75032 -17.49682 27571 ft 338 kts 295°
2026-04-23 08:22 13.76064 -17.51865 28026 ft 341 kts 295°
2026-04-23 08:22 13.77102 -17.54064 28476 ft 343 kts 295°
2026-04-23 08:22 13.78145 -17.56277 28926 ft 345 kts 295°
2026-04-23 08:22 13.79195 -17.58503 29357 ft 347 kts 295°
2026-04-23 08:23 13.80248 -17.60745 29797 ft 349 kts 295°
2026-04-23 08:23 13.81307 -17.63006 30193 ft 352 kts 295°
2026-04-23 08:23 13.82371 -17.65279 30547 ft 354 kts 295°
2026-04-23 08:23 13.83444 -17.67565 30906 ft 356 kts 295°
2026-04-23 08:24 13.84528 -17.69868 31347 ft 358 kts 294°
2026-04-23 08:24 13.85622 -17.72181 31768 ft 361 kts 294°
2026-04-23 08:24 13.86730 -17.74514 32190 ft 364 kts 294°
2026-04-23 08:24 13.87846 -17.76857 32611 ft 367 kts 294°
2026-04-23 08:25 13.88977 -17.79223 33026 ft 369 kts 294°
2026-04-23 08:25 13.90118 -17.81603 33434 ft 372 kts 294°
2026-04-23 08:25 13.91272 -17.84000 33849 ft 375 kts 294°
2026-04-23 08:25 13.92439 -17.86414 34222 ft 378 kts 294°
2026-04-23 08:26 13.93618 -17.88843 34558 ft 381 kts 294°
2026-04-23 08:26 13.94815 -17.91289 34908 ft 384 kts 294°
2026-04-23 08:26 13.96028 -17.93752 35248 ft 387 kts 294°
2026-04-23 08:26 13.97256 -17.96227 35574 ft 390 kts 294°
2026-04-23 08:27 13.98501 -17.98721 35908 ft 393 kts 294°
2026-04-23 08:27 13.99763 -18.01231 36242 ft 396 kts 294°
2026-04-23 08:27 14.01039 -18.03751 36539 ft 399 kts 294°
2026-04-23 08:27 14.02332 -18.06290 36774 ft 402 kts 294°
2026-04-23 08:28 14.03598 -18.08859 37007 ft 402 kts 290°
2026-04-23 08:28 14.04462 -18.11585 37256 ft 400 kts 279°
2026-04-23 08:28 14.04804 -18.14418 37532 ft 398 kts 269°
2026-04-23 08:28 14.04769 -18.17269 37806 ft 398 kts 265°
2026-04-23 08:29 14.04617 -18.20123 38078 ft 400 kts 264°
2026-04-23 08:29 14.04564 -18.22996 38340 ft 403 kts 268°
2026-04-23 08:29 14.04650 -18.25892 38611 ft 406 kts 268°
2026-04-23 08:29 14.04708 -18.28803 38828 ft 407 kts 266°
2026-04-23 08:30 14.04684 -18.31717 39146 ft 405 kts 266°
2026-04-23 08:30 14.04664 -18.34605 39564 ft 402 kts 266°
2026-04-23 08:30 14.04686 -18.37489 39861 ft 403 kts 267°
2026-04-23 08:30 14.04714 -18.40371 40160 ft 402 kts 267°
2026-04-23 08:31 14.04718 -18.43250 40464 ft 402 kts 266°
2026-04-23 08:31 14.04716 -18.46124 40759 ft 402 kts 266°
2026-04-23 08:31 14.04725 -18.49002 41047 ft 401 kts 266°
2026-04-23 08:31 14.04738 -18.51875 41331 ft 401 kts 266°
2026-04-23 08:32 14.04746 -18.54748 41604 ft 401 kts 266°
2026-04-23 08:32 14.04750 -18.57618 41871 ft 401 kts 266°
2026-04-23 08:32 14.04756 -18.60484 42134 ft 400 kts 266°
2026-04-23 08:32 14.04764 -18.63352 42387 ft 400 kts 266°
2026-04-23 08:33 14.04770 -18.66216 42627 ft 400 kts 266°
2026-04-23 08:33 14.04775 -18.69086 42863 ft 400 kts 266°
2026-04-23 08:33 14.04780 -18.71954 43000 ft 403 kts 267°
2026-04-23 08:33 14.04784 -18.74858 42985 ft 408 kts 267°
2026-04-23 08:34 14.04794 -18.80781 43004 ft 418 kts 267°
2026-04-23 08:34 14.04802 -18.86848 43009 ft 429 kts 267°
2026-04-23 08:35 14.04809 -18.93058 43006 ft 438 kts 267°
2026-04-23 08:35 14.04814 -18.99403 43006 ft 448 kts 267°
2026-04-23 08:36 14.04817 -19.05881 43002 ft 457 kts 267°
2026-04-23 08:36 14.04819 -19.12481 43002 ft 465 kts 267°
2026-04-23 08:37 14.04819 -19.19197 43002 ft 472 kts 267°
2026-04-23 08:37 14.04817 -19.26002 43005 ft 478 kts 267°
2026-04-23 08:38 14.04813 -19.32872 43007 ft 482 kts 267°
2026-04-23 08:38 14.04808 -19.39796 43008 ft 485 kts 267°
2026-04-23 08:39 14.04800 -19.46762 43007 ft 488 kts 267°
2026-04-23 08:39 14.04790 -19.53759 43007 ft 490 kts 267°
2026-04-23 08:40 14.04778 -19.60782 43011 ft 491 kts 267°
2026-04-23 08:40 14.04764 -19.67780 42997 ft 492 kts 267°
2026-04-23 08:41 14.04748 -19.74834 43019 ft 493 kts 267°
2026-04-23 08:41 14.04730 -19.81896 43003 ft 494 kts 267°
2026-04-23 08:42 14.04709 -19.88969 42993 ft 494 kts 267°
2026-04-23 08:42 14.04687 -19.96047 43005 ft 494 kts 267°
2026-04-23 08:43 14.04662 -20.03125 43012 ft 494 kts 267°
2026-04-23 08:43 14.04636 -20.10204 43011 ft 495 kts 268°
2026-04-23 08:44 14.04608 -20.17287 43011 ft 495 kts 268°
2026-04-23 08:44 14.04577 -20.24367 43008 ft 495 kts 268°
2026-04-23 08:45 14.04544 -20.31449 43001 ft 495 kts 268°
2026-04-23 08:45 14.04509 -20.38532 42996 ft 495 kts 268°
2026-04-23 08:46 14.04473 -20.45615 43012 ft 494 kts 268°
2026-04-23 08:46 14.04434 -20.52693 43008 ft 494 kts 268°
2026-04-23 08:47 14.04393 -20.59774 43006 ft 494 kts 268°
2026-04-23 08:47 14.04350 -20.66850 43010 ft 494 kts 268°
2026-04-23 08:48 14.04305 -20.73928 43009 ft 494 kts 268°
2026-04-23 08:48 14.04258 -20.81003 42996 ft 494 kts 268°
2026-04-23 08:49 14.04209 -20.88076 43007 ft 494 kts 268°
2026-04-23 08:49 14.04158 -20.95105 43002 ft 494 kts 268°
2026-04-23 08:50 14.04104 -21.02226 43004 ft 494 kts 268°
2026-04-23 08:50 14.04049 -21.09297 43006 ft 494 kts 268°
2026-04-23 08:51 14.03992 -21.16365 43015 ft 493 kts 268°
2026-04-23 08:51 14.03943 -21.22236 43011 ft 493 kts 268°
2026-04-23 08:52 14.03882 -21.29300 43013 ft 493 kts 268°
2026-04-23 08:52 14.03819 -21.36360 43009 ft 493 kts 268°
2026-04-23 08:53 14.03754 -21.43416 43016 ft 493 kts 268°
2026-04-23 08:53 14.03687 -21.50472 43016 ft 493 kts 268°
2026-04-23 08:54 14.03618 -21.57522 43017 ft 492 kts 268°
2026-04-23 08:54 14.03547 -21.64570 43016 ft 492 kts 268°
2026-04-23 08:55 14.03473 -21.71611 43020 ft 492 kts 268°
2026-04-23 08:55 14.03398 -21.78651 43017 ft 491 kts 268°
2026-04-23 08:56 14.03321 -21.85683 43015 ft 491 kts 268°
2026-04-23 08:56 14.03242 -21.92715 43016 ft 491 kts 268°
2026-04-23 08:57 14.03161 -21.99742 43015 ft 491 kts 268°
2026-04-23 08:57 14.03078 -22.06769 43014 ft 490 kts 268°
2026-04-23 08:58 14.02993 -22.13790 43019 ft 490 kts 268°
2026-04-23 08:58 14.02906 -22.20806 43015 ft 490 kts 268°
2026-04-23 08:59 14.02817 -22.27819 43021 ft 490 kts 268°
2026-04-23 08:59 14.02726 -22.34830 43021 ft 489 kts 268°
2026-04-23 09:00 14.02633 -22.41838 43022 ft 489 kts 268°
2026-04-23 09:00 14.02539 -22.48843 43023 ft 489 kts 268°
2026-04-23 09:01 14.02442 -22.55840 43024 ft 489 kts 268°
2026-04-23 09:01 14.02343 -22.62842 43026 ft 488 kts 268°
2026-04-23 09:02 14.02242 -22.69833 43024 ft 488 kts 268°
2026-04-23 09:02 14.02139 -22.76822 43025 ft 488 kts 268°
2026-04-23 09:03 14.02035 -22.83808 43023 ft 488 kts 267°
2026-04-23 09:03 14.01928 -22.90788 43033 ft 487 kts 267°
2026-04-23 09:04 14.01820 -22.97766 43034 ft 487 kts 267°
2026-04-23 09:04 14.01709 -23.04738 43038 ft 487 kts 267°
2026-04-23 09:05 14.01597 -23.11708 43029 ft 487 kts 267°
2026-04-23 09:05 14.01482 -23.18678 43024 ft 487 kts 267°
2026-04-23 09:06 14.01366 -23.25644 43023 ft 486 kts 267°
2026-04-23 09:06 14.01248 -23.32606 43021 ft 486 kts 267°
2026-04-23 09:07 14.01128 -23.39566 43021 ft 486 kts 267°
2026-04-23 09:07 14.01005 -23.46527 43018 ft 486 kts 267°
2026-04-23 09:08 14.00881 -23.53487 43021 ft 486 kts 267°
2026-04-23 09:08 14.00755 -23.60441 43032 ft 486 kts 267°
2026-04-23 09:09 14.00627 -23.67396 43037 ft 486 kts 267°
2026-04-23 09:09 14.00497 -23.74348 43036 ft 486 kts 267°
2026-04-23 09:10 14.00298 -23.84778 43027 ft 486 kts 267°
2026-04-23 09:11 14.00163 -23.91728 43033 ft 486 kts 267°
2026-04-23 09:11 14.00064 -23.98677 43018 ft 486 kts 270°
2026-04-23 09:12 14.01175 -24.05553 43037 ft 488 kts 281°
2026-04-23 09:12 14.02617 -24.12382 43034 ft 488 kts 280°
2026-04-23 09:13 14.04051 -24.19211 43046 ft 488 kts 280°
2026-04-23 09:13 14.05495 -24.26046 43020 ft 488 kts 280°
2026-04-23 09:14 14.06925 -24.32879 43046 ft 488 kts 280°
2026-04-23 09:14 14.08362 -24.39710 43035 ft 488 kts 280°
2026-04-23 09:15 14.09790 -24.46543 43025 ft 488 kts 280°
2026-04-23 09:15 14.11220 -24.53371 43022 ft 488 kts 280°
2026-04-23 09:16 14.12645 -24.60199 43027 ft 487 kts 280°
2026-04-23 09:16 14.14070 -24.67027 43044 ft 487 kts 280°
2026-04-23 09:17 14.15490 -24.73852 43044 ft 487 kts 280°
2026-04-23 09:17 14.16909 -24.80673 43038 ft 487 kts 280°
2026-04-23 09:18 14.18325 -24.87495 43023 ft 487 kts 279°
2026-04-23 09:18 14.19739 -24.94315 43037 ft 486 kts 279°
2026-04-23 09:19 14.21150 -25.01131 43040 ft 486 kts 279°
2026-04-23 09:19 14.22559 -25.07951 43026 ft 486 kts 279°
2026-04-23 09:20 14.23966 -25.14767 43027 ft 486 kts 279°
2026-04-23 09:20 14.25371 -25.21584 43031 ft 486 kts 279°
2026-04-23 09:21 14.26771 -25.28392 43038 ft 486 kts 279°
2026-04-23 09:21 14.28171 -25.35203 43029 ft 486 kts 279°
2026-04-23 09:22 14.29567 -25.42009 43039 ft 485 kts 279°
2026-04-23 09:22 14.30961 -25.48816 43028 ft 485 kts 279°
2026-04-23 09:23 14.32353 -25.55621 43035 ft 485 kts 279°
2026-04-23 09:23 14.33742 -25.62423 43037 ft 485 kts 280°
2026-04-23 09:24 14.35129 -25.69223 43035 ft 485 kts 280°
2026-04-23 09:24 14.36513 -25.76023 43037 ft 484 kts 280°
2026-04-23 09:25 14.37894 -25.82818 43044 ft 484 kts 280°
2026-04-23 09:25 14.39273 -25.89612 43044 ft 484 kts 280°
2026-04-23 09:26 14.40649 -25.96401 43046 ft 484 kts 280°
2026-04-23 09:26 14.42023 -26.03192 43044 ft 483 kts 279°
2026-04-23 09:27 14.43394 -26.09978 43053 ft 483 kts 279°
2026-04-23 09:27 14.44762 -26.16760 43053 ft 483 kts 279°
2026-04-23 09:28 14.46127 -26.23539 43044 ft 483 kts 279°
2026-04-23 09:28 14.47492 -26.30325 43034 ft 483 kts 279°
2026-04-23 09:29 14.48853 -26.37103 43038 ft 482 kts 279°
2026-04-23 09:29 14.50212 -26.43880 43037 ft 482 kts 279°
2026-04-23 09:30 14.51568 -26.50656 43044 ft 482 kts 279°
2026-04-23 09:30 14.52922 -26.57428 43056 ft 482 kts 279°
2026-04-23 09:31 14.54273 -26.64201 43039 ft 482 kts 279°
2026-04-23 09:31 14.55623 -26.70978 43042 ft 482 kts 279°
2026-04-23 09:32 14.56744 -26.76612 43044 ft 482 kts 279°
2026-04-23 09:32 14.58090 -26.83387 43061 ft 482 kts 279°
2026-04-23 09:33 14.59434 -26.90165 43052 ft 482 kts 279°
2026-04-23 09:33 14.60778 -26.96949 43044 ft 482 kts 279°
2026-04-23 09:34 14.62119 -27.03731 43042 ft 482 kts 279°
2026-04-23 09:34 14.63459 -27.10518 43044 ft 482 kts 279°
2026-04-23 09:35 14.64796 -27.17302 43046 ft 482 kts 279°
2026-04-23 09:35 14.66132 -27.24090 43045 ft 482 kts 279°
2026-04-23 09:36 14.67465 -27.30876 43042 ft 482 kts 279°
2026-04-23 09:36 14.68796 -27.37662 43047 ft 482 kts 279°
2026-04-23 09:37 14.70125 -27.44447 43046 ft 482 kts 279°
2026-04-23 09:37 14.71452 -27.51235 43047 ft 482 kts 279°
2026-04-23 09:38 14.72777 -27.58020 43051 ft 482 kts 279°
2026-04-23 09:38 14.74099 -27.64805 43051 ft 482 kts 279°
2026-04-23 09:39 14.75419 -27.71588 43051 ft 481 kts 279°
2026-04-23 09:39 14.76736 -27.78370 43051 ft 481 kts 279°
2026-04-23 09:40 14.78051 -27.85148 43060 ft 481 kts 279°
2026-04-23 09:40 14.79363 -27.91923 43057 ft 481 kts 279°
2026-04-23 09:41 14.80672 -27.98694 43064 ft 480 kts 279°
2026-04-23 09:41 14.81978 -28.05462 43046 ft 480 kts 279°
2026-04-23 09:42 14.83283 -28.12233 43048 ft 480 kts 279°
2026-04-23 09:42 14.84584 -28.18998 43046 ft 480 kts 279°
2026-04-23 09:43 14.85883 -28.25759 43043 ft 479 kts 279°
2026-04-23 09:43 14.87177 -28.32510 43065 ft 479 kts 279°
2026-04-23 09:44 14.88468 -28.39254 43057 ft 478 kts 279°
2026-04-23 09:44 14.89757 -28.45998 43051 ft 478 kts 279°
2026-04-23 09:45 14.91042 -28.52733 43058 ft 478 kts 279°
2026-04-23 09:45 14.92325 -28.59470 43045 ft 477 kts 279°
2026-04-23 09:46 14.93605 -28.66202 43064 ft 477 kts 279°
2026-04-23 09:46 14.94882 -28.72925 43067 ft 476 kts 279°
2026-04-23 09:47 14.96156 -28.79648 43039 ft 476 kts 279°
2026-04-23 09:47 14.97428 -28.86368 43042 ft 476 kts 279°
2026-04-23 09:48 14.98697 -28.93085 43046 ft 476 kts 279°
2026-04-23 09:48 14.99893 -28.99808 43038 ft 474 kts 275°
2026-04-23 09:49 15.00076 -29.06595 43055 ft 472 kts 269°
2026-04-23 09:49 15.00176 -29.13380 43064 ft 472 kts 269°
2026-04-23 09:50 15.00253 -29.20170 43065 ft 472 kts 269°
2026-04-23 09:50 15.00338 -29.26956 43059 ft 472 kts 269°
2026-04-23 09:51 15.00417 -29.33745 43065 ft 472 kts 269°
2026-04-23 09:51 15.00495 -29.40531 43060 ft 472 kts 269°
2026-04-23 09:52 15.00571 -29.47318 43069 ft 472 kts 269°
2026-04-23 09:52 15.00645 -29.54105 43064 ft 472 kts 269°
2026-04-23 09:53 15.00717 -29.60893 43054 ft 472 kts 269°
2026-04-23 09:53 15.00787 -29.67680 43062 ft 472 kts 269°
2026-04-23 09:54 15.00855 -29.74466 43064 ft 472 kts 269°
2026-04-23 09:54 15.00921 -29.81252 43061 ft 472 kts 269°
2026-04-23 09:55 15.00984 -29.88035 43068 ft 472 kts 269°
2026-04-23 09:55 15.01046 -29.94823 43049 ft 472 kts 269°
2026-04-23 09:56 15.01106 -30.01609 43055 ft 472 kts 269°
2026-04-23 09:56 15.01164 -30.08389 43066 ft 471 kts 269°
2026-04-23 09:57 15.01219 -30.15174 43053 ft 472 kts 270°
2026-04-23 09:57 15.01273 -30.21927 43298 ft 467 kts 270°
2026-04-23 09:57 15.01299 -30.25278 43435 ft 465 kts 269°
2026-04-23 09:58 15.01324 -30.28612 43556 ft 463 kts 269°
2026-04-23 09:58 15.01349 -30.31935 43683 ft 462 kts 269°
2026-04-23 09:58 15.01373 -30.35249 43827 ft 460 kts 269°
2026-04-23 09:58 15.01397 -30.38550 43961 ft 458 kts 269°
2026-04-23 09:59 15.01419 -30.41844 44089 ft 457 kts 269°
2026-04-23 09:59 15.01442 -30.45128 44214 ft 456 kts 269°
2026-04-23 09:59 15.01464 -30.48404 44356 ft 455 kts 269°
2026-04-23 09:59 15.01485 -30.51672 44500 ft 454 kts 269°
2026-04-23 10:00 15.01506 -30.54933 44629 ft 453 kts 269°
2026-04-23 10:00 15.01526 -30.58187 44756 ft 452 kts 269°
2026-04-23 10:00 15.01546 -30.61436 44870 ft 451 kts 269°
2026-04-23 10:01 15.01585 -30.67920 45081 ft 450 kts 270°
2026-04-23 10:01 15.01603 -30.71154 45193 ft 449 kts 270°
2026-04-23 10:01 15.01621 -30.74382 45305 ft 449 kts 270°
2026-04-23 10:01 15.01639 -30.77606 45418 ft 448 kts 270°
2026-04-23 10:02 15.01656 -30.80828 45535 ft 447 kts 270°
2026-04-23 10:02 15.01688 -30.87258 45745 ft 446 kts 270°
2026-04-23 10:03 15.01719 -30.93667 45955 ft 445 kts 270°
2026-04-23 10:03 15.01733 -30.96862 46091 ft 444 kts 270°
2026-04-23 10:03 15.01748 -31.00051 46206 ft 443 kts 270°
2026-04-23 10:03 15.01761 -31.03241 46308 ft 443 kts 270°
2026-04-23 10:04 15.01775 -31.06424 46404 ft 442 kts 270°
2026-04-23 10:04 15.01787 -31.09602 46519 ft 442 kts 270°
2026-04-23 10:04 15.01800 -31.12774 46633 ft 441 kts 270°
2026-04-23 10:04 15.01811 -31.15943 46747 ft 440 kts 270°
2026-04-23 10:05 15.01823 -31.19106 46858 ft 440 kts 270°
2026-04-23 10:05 15.01834 -31.22265 46960 ft 439 kts 270°
2026-04-23 10:05 15.01844 -31.25422 47050 ft 439 kts 270°
2026-04-23 10:06 15.01864 -31.31763 47052 ft 442 kts 270°
2026-04-23 10:06 15.01882 -31.38141 47076 ft 445 kts 270°
2026-04-23 10:07 15.01899 -31.44553 47067 ft 447 kts 270°
2026-04-23 10:07 15.01913 -31.51002 47057 ft 449 kts 270°
2026-04-23 10:08 15.01926 -31.57459 47073 ft 450 kts 270°
2026-04-23 10:08 15.01937 -31.63936 47057 ft 451 kts 270°
2026-04-23 10:09 15.01951 -31.73678 47062 ft 452 kts 270°
2026-04-23 10:09 15.01957 -31.80177 47057 ft 452 kts 270°
2026-04-23 10:10 15.01962 -31.86641 47060 ft 452 kts 270°
2026-04-23 10:10 15.01965 -31.93187 47080 ft 452 kts 270°
2026-04-23 10:11 15.01966 -31.99693 47071 ft 452 kts 270°
2026-04-23 10:11 15.01965 -32.06199 47068 ft 453 kts 270°
2026-04-23 10:12 15.01962 -32.12711 47070 ft 452 kts 270°
2026-04-23 10:12 15.01959 -32.18121 47061 ft 453 kts 270°
2026-04-23 10:13 15.01953 -32.24633 47060 ft 453 kts 270°
2026-04-23 10:13 15.01945 -32.31142 47067 ft 452 kts 270°
2026-04-23 10:14 15.01935 -32.37650 47071 ft 452 kts 270°
2026-04-23 10:14 15.01923 -32.44160 47058 ft 453 kts 270°
2026-04-23 10:15 15.01910 -32.50671 47064 ft 453 kts 270°
2026-04-23 10:15 15.01894 -32.57178 47077 ft 452 kts 270°
2026-04-23 10:16 15.01877 -32.63678 47079 ft 452 kts 270°
2026-04-23 10:16 15.01858 -32.70179 47074 ft 452 kts 270°
2026-04-23 10:17 15.01837 -32.76676 47078 ft 452 kts 270°
2026-04-23 10:17 15.01815 -32.83171 47076 ft 451 kts 270°
2026-04-23 10:18 15.01790 -32.89660 47079 ft 451 kts 270°
2026-04-23 10:18 15.01764 -32.96151 47062 ft 451 kts 270°
2026-04-23 10:19 15.01736 -33.02636 47070 ft 451 kts 270°
2026-04-23 10:19 15.01706 -33.09121 47065 ft 451 kts 270°
2026-04-23 10:20 15.01674 -33.15589 47069 ft 447 kts 270°
2026-04-23 10:20 15.01641 -33.21949 47069 ft 438 kts 270°
2026-04-23 10:21 15.01607 -33.28204 47057 ft 431 kts 270°
2026-04-23 10:21 15.01571 -33.34366 47057 ft 427 kts 270°
2026-04-23 10:22 15.01534 -33.40527 47082 ft 430 kts 270°
2026-04-23 10:22 15.01495 -33.46747 47078 ft 434 kts 270°
2026-04-23 10:23 15.01454 -33.53021 47085 ft 437 kts 270°
2026-04-23 10:23 15.01411 -33.59333 47078 ft 440 kts 270°
2026-04-23 10:24 15.01366 -33.65671 47087 ft 442 kts 270°
2026-04-23 10:24 15.01319 -33.72036 47077 ft 443 kts 271°
2026-04-23 10:25 15.01271 -33.78404 47067 ft 443 kts 271°
2026-04-23 10:25 15.01220 -33.84773 47067 ft 443 kts 271°
2026-04-23 10:26 15.01168 -33.91145 47074 ft 443 kts 271°
2026-04-23 10:26 15.01114 -33.97517 47067 ft 443 kts 271°
2026-04-23 10:27 15.01058 -34.03889 47080 ft 443 kts 271°
2026-04-23 10:27 15.01000 -34.10265 47076 ft 443 kts 271°
2026-04-23 10:28 15.00941 -34.16640 47068 ft 444 kts 271°
2026-04-23 10:28 15.00880 -34.23019 47066 ft 444 kts 271°
2026-04-23 10:29 15.00816 -34.29397 47087 ft 443 kts 271°
2026-04-23 10:29 15.00752 -34.35776 47064 ft 444 kts 271°
2026-04-23 10:30 15.00685 -34.42160 47071 ft 444 kts 271°
2026-04-23 10:30 15.00617 -34.48539 47091 ft 444 kts 271°
2026-04-23 10:31 15.00546 -34.54923 47070 ft 444 kts 271°
2026-04-23 10:31 15.00474 -34.61308 47074 ft 444 kts 271°
2026-04-23 10:32 15.00401 -34.67693 47088 ft 444 kts 271°
2026-04-23 10:32 15.00325 -34.74080 47072 ft 444 kts 271°
2026-04-23 10:33 15.00248 -34.80426 47065 ft 444 kts 271°
2026-04-23 10:33 15.00169 -34.86818 47065 ft 445 kts 271°
2026-04-23 10:34 15.00088 -34.93212 47082 ft 444 kts 271°
2026-04-23 10:34 15.00005 -34.99603 47094 ft 444 kts 271°
2026-04-23 10:35 14.99921 -35.05996 47078 ft 445 kts 271°
2026-04-23 10:35 14.99834 -35.12391 47089 ft 444 kts 271°
2026-04-23 10:36 14.99746 -35.18786 47071 ft 445 kts 270°
2026-04-23 10:36 14.99656 -35.25182 47091 ft 445 kts 270°
2026-04-23 10:37 14.99565 -35.31578 47084 ft 445 kts 270°
2026-04-23 10:37 14.99471 -35.37976 47069 ft 445 kts 270°
2026-04-23 10:38 14.99376 -35.44381 47070 ft 445 kts 270°
2026-04-23 10:38 14.99279 -35.50781 47075 ft 445 kts 270°
2026-04-23 10:39 14.99180 -35.57187 47085 ft 445 kts 270°
2026-04-23 10:39 14.99079 -35.63591 47081 ft 445 kts 270°
2026-04-23 10:40 14.98976 -35.70000 47085 ft 445 kts 270°
2026-04-23 10:40 14.98872 -35.76406 47083 ft 446 kts 270°
2026-04-23 10:41 14.98765 -35.82820 47083 ft 446 kts 270°
2026-04-23 10:41 14.98657 -35.89232 47090 ft 446 kts 270°
2026-04-23 10:42 14.98548 -35.95641 47075 ft 446 kts 270°
2026-04-23 10:42 14.98459 -36.02055 47077 ft 445 kts 272°
2026-04-23 10:43 14.99320 -36.08360 47074 ft 444 kts 286°
2026-04-23 10:43 15.01192 -36.14437 47068 ft 444 kts 286°
2026-04-23 10:44 15.02716 -36.20623 47076 ft 444 kts 284°
2026-04-23 10:44 15.04406 -36.26759 47079 ft 443 kts 286°
2026-04-23 10:45 15.06016 -36.32915 47079 ft 444 kts 285°
2026-04-23 10:45 15.07656 -36.39067 47074 ft 444 kts 285°
2026-04-23 10:46 15.09286 -36.45226 47078 ft 444 kts 285°
2026-04-23 10:46 15.10915 -36.51384 47083 ft 444 kts 285°
2026-04-23 10:47 15.12543 -36.57541 47077 ft 444 kts 285°
2026-04-23 10:47 15.14169 -36.63704 47073 ft 444 kts 285°
2026-04-23 10:48 15.15794 -36.69864 47079 ft 444 kts 285°
2026-04-23 10:48 15.17415 -36.76021 47088 ft 443 kts 285°
2026-04-23 10:49 15.19037 -36.82183 47074 ft 444 kts 285°
2026-04-23 10:49 15.20655 -36.88344 47082 ft 443 kts 285°
2026-04-23 10:50 15.22271 -36.94503 47091 ft 443 kts 285°
2026-04-23 10:50 15.23884 -37.00657 47088 ft 443 kts 285°
2026-04-23 10:51 15.25498 -37.06820 47065 ft 443 kts 285°
2026-04-23 10:51 15.27109 -37.12983 47079 ft 443 kts 285°
2026-04-23 10:52 15.28720 -37.19149 47070 ft 443 kts 285°
2026-04-23 10:52 15.30327 -37.25309 47089 ft 443 kts 285°
2026-04-23 10:53 15.31932 -37.31468 47077 ft 443 kts 285°
2026-04-23 10:53 15.33536 -37.37634 47072 ft 443 kts 284°
2026-04-23 10:54 15.35139 -37.43800 47079 ft 443 kts 284°
2026-04-23 10:54 15.36739 -37.49963 47072 ft 443 kts 284°
2026-04-23 10:55 15.38068 -37.55089 47068 ft 443 kts 284°
2026-04-23 10:55 15.39666 -37.61259 47073 ft 443 kts 284°
2026-04-23 10:56 15.41261 -37.67424 47076 ft 443 kts 284°
2026-04-23 10:56 15.42854 -37.73590 47076 ft 443 kts 284°
2026-04-23 10:57 15.44447 -37.79761 47076 ft 443 kts 284°
2026-04-23 10:57 15.46038 -37.85932 47080 ft 443 kts 284°
2026-04-23 10:58 15.47626 -37.92103 47085 ft 443 kts 284°
2026-04-23 10:58 15.49212 -37.98270 47094 ft 443 kts 284°
2026-04-23 10:59 15.50797 -38.04441 47089 ft 443 kts 284°
2026-04-23 10:59 15.52380 -38.10614 47073 ft 443 kts 284°
2026-04-23 11:00 15.53964 -38.16795 47070 ft 443 kts 284°
2026-04-23 11:00 15.55544 -38.22970 47071 ft 443 kts 284°
2026-04-23 11:01 15.57123 -38.29150 47081 ft 443 kts 284°
2026-04-23 11:01 15.58699 -38.35326 47090 ft 443 kts 284°
2026-04-23 11:02 15.60275 -38.41506 47099 ft 443 kts 284°
2026-04-23 11:02 15.61848 -38.47687 47080 ft 443 kts 284°
2026-04-23 11:03 15.63422 -38.53875 47077 ft 443 kts 284°
2026-04-23 11:03 15.64993 -38.60061 47087 ft 443 kts 284°
2026-04-23 11:04 15.66562 -38.66248 47076 ft 443 kts 284°
2026-04-23 11:04 15.68131 -38.72440 47061 ft 444 kts 284°
2026-04-23 11:05 15.69697 -38.78631 47083 ft 443 kts 284°
2026-04-23 11:05 15.71263 -38.84828 47068 ft 444 kts 284°
2026-04-23 11:06 15.73609 -38.94128 47080 ft 444 kts 284°
2026-04-23 11:07 15.75171 -39.00330 47058 ft 444 kts 284°
2026-04-23 11:07 15.76733 -39.06538 47058 ft 444 kts 283°
2026-04-23 11:08 15.78292 -39.12744 47063 ft 444 kts 283°
2026-04-23 11:08 15.79849 -39.18950 47072 ft 444 kts 283°
2026-04-23 11:09 15.81404 -39.25156 47074 ft 444 kts 283°
2026-04-23 11:09 15.82958 -39.31366 47076 ft 444 kts 283°
2026-04-23 11:10 15.84510 -39.37575 47066 ft 444 kts 283°
2026-04-23 11:10 15.86061 -39.43791 47061 ft 444 kts 283°
2026-04-23 11:11 15.87610 -39.50002 47070 ft 444 kts 283°
2026-04-23 11:11 15.89157 -39.56214 47069 ft 444 kts 283°
2026-04-23 11:12 15.90701 -39.62425 47073 ft 444 kts 283°
2026-04-23 11:12 15.92244 -39.68638 47072 ft 444 kts 283°
2026-04-23 11:13 15.93785 -39.74854 47063 ft 444 kts 283°
2026-04-23 11:13 15.95326 -39.81073 47063 ft 445 kts 283°
2026-04-23 11:14 15.96866 -39.87300 47061 ft 445 kts 283°
2026-04-23 11:14 15.98404 -39.93526 47067 ft 445 kts 283°
2026-04-23 11:15 15.99814 -39.99777 47054 ft 444 kts 277°
2026-04-23 11:15 16.00077 -40.06175 47078 ft 443 kts 271°
2026-04-23 11:16 16.00175 -40.12586 47080 ft 444 kts 271°
2026-04-23 11:16 16.00254 -40.19002 47071 ft 444 kts 271°
2026-04-23 11:17 16.00339 -40.25421 47073 ft 444 kts 271°
2026-04-23 11:17 16.00418 -40.31850 47074 ft 445 kts 271°
2026-04-23 11:18 16.00498 -40.38274 47081 ft 445 kts 271°
2026-04-23 11:18 16.00575 -40.44710 47081 ft 445 kts 271°
2026-04-23 11:19 16.00650 -40.51145 47077 ft 445 kts 271°
2026-04-23 11:19 16.00723 -40.57583 47061 ft 446 kts 271°
2026-04-23 11:20 16.00794 -40.64027 47061 ft 446 kts 271°
2026-04-23 11:20 16.00864 -40.70472 47062 ft 446 kts 270°
2026-04-23 11:21 16.00931 -40.76915 47080 ft 446 kts 270°
2026-04-23 11:21 16.00997 -40.83364 47055 ft 447 kts 270°
2026-04-23 11:22 16.01061 -40.89813 47055 ft 447 kts 270°
2026-04-23 11:22 16.01123 -40.96269 47063 ft 447 kts 270°
2026-04-23 11:23 16.01182 -41.02721 47075 ft 447 kts 270°
2026-04-23 11:23 16.01241 -41.09178 47081 ft 447 kts 270°
2026-04-23 11:24 16.01296 -41.15637 47051 ft 447 kts 270°
2026-04-23 11:24 16.01351 -41.22100 47065 ft 447 kts 270°
2026-04-23 11:25 16.01403 -41.28565 47058 ft 448 kts 270°
2026-04-23 11:25 16.01453 -41.35035 47067 ft 448 kts 270°
2026-04-23 11:26 16.01502 -41.41503 47072 ft 447 kts 270°
2026-04-23 11:26 16.01548 -41.47973 47054 ft 448 kts 270°
2026-04-23 11:27 16.01593 -41.54449 47060 ft 448 kts 270°
2026-04-23 11:27 16.01636 -41.60931 47056 ft 449 kts 270°
2026-04-23 11:28 16.01677 -41.67413 47058 ft 449 kts 270°
2026-04-23 11:28 16.01715 -41.73900 47062 ft 449 kts 270°
2026-04-23 11:29 16.01752 -41.80387 47061 ft 449 kts 270°
2026-04-23 11:29 16.01787 -41.86873 47079 ft 449 kts 270°
2026-04-23 11:30 16.01820 -41.93365 47055 ft 449 kts 270°
2026-04-23 11:30 16.01851 -41.99864 47060 ft 450 kts 270°
2026-04-23 11:31 16.01880 -42.06360 47064 ft 450 kts 270°
2026-04-23 11:31 16.01908 -42.12857 47068 ft 450 kts 270°
2026-04-23 11:32 16.01933 -42.19359 47062 ft 450 kts 270°
2026-04-23 11:32 16.01956 -42.25865 47058 ft 450 kts 270°
2026-04-23 11:33 16.01978 -42.32375 47062 ft 450 kts 270°
2026-04-23 11:33 16.01997 -42.38886 47072 ft 450 kts 270°
2026-04-23 11:34 16.02014 -42.45396 47075 ft 450 kts 270°
2026-04-23 11:34 16.02030 -42.51910 47060 ft 451 kts 270°
2026-04-23 11:35 16.02043 -42.58427 47076 ft 451 kts 270°
2026-04-23 11:35 16.02055 -42.64951 47052 ft 452 kts 270°
2026-04-23 11:36 16.02063 -42.70374 47060 ft 452 kts 270°
2026-04-23 11:36 16.02071 -42.76900 47080 ft 451 kts 270°
2026-04-23 11:37 16.02077 -42.83430 47065 ft 452 kts 270°
2026-04-23 11:37 16.02081 -42.89961 47056 ft 452 kts 270°
2026-04-23 11:38 16.02083 -42.96503 47052 ft 452 kts 270°
2026-04-23 11:38 16.02083 -43.03035 47071 ft 452 kts 270°
2026-04-23 11:39 16.02081 -43.09570 47079 ft 452 kts 270°
2026-04-23 11:39 16.02078 -43.16110 47058 ft 453 kts 270°
2026-04-23 11:40 16.02071 -43.22657 47060 ft 453 kts 270°
2026-04-23 11:40 16.02064 -43.29202 47062 ft 453 kts 270°
2026-04-23 11:41 16.02054 -43.35744 47072 ft 453 kts 270°
2026-04-23 11:41 16.02042 -43.42288 47068 ft 453 kts 270°
2026-04-23 11:42 16.02028 -43.48834 47069 ft 453 kts 269°
2026-04-23 11:42 16.02012 -43.55382 47070 ft 453 kts 269°
2026-04-23 11:43 16.01995 -43.61931 47068 ft 453 kts 269°
2026-04-23 11:43 16.01975 -43.68478 47078 ft 453 kts 269°
2026-04-23 11:44 16.01953 -43.75031 47050 ft 454 kts 269°
2026-04-23 11:44 16.01929 -43.81584 47059 ft 454 kts 269°
2026-04-23 11:45 16.01904 -43.88141 47057 ft 454 kts 269°
2026-04-23 11:45 16.01876 -43.94700 47060 ft 454 kts 269°
2026-04-23 11:46 16.01846 -44.01256 47068 ft 454 kts 269°
2026-04-23 11:46 16.01814 -44.07814 47064 ft 454 kts 269°
2026-04-23 11:47 16.01781 -44.14376 47065 ft 454 kts 269°
2026-04-23 11:47 16.01745 -44.20938 47064 ft 454 kts 269°
2026-04-23 11:48 16.01707 -44.27493 47057 ft 454 kts 269°
2026-04-23 11:48 16.01667 -44.34062 47065 ft 454 kts 269°
2026-04-23 11:49 16.01626 -44.40624 47071 ft 454 kts 269°
2026-04-23 11:49 16.01582 -44.47188 47062 ft 454 kts 269°
2026-04-23 11:50 16.01536 -44.53803 47057 ft 455 kts 269°
2026-04-23 11:50 16.01488 -44.60369 47078 ft 454 kts 269°
2026-04-23 11:51 16.01438 -44.66939 47049 ft 455 kts 269°
2026-04-23 11:51 16.01387 -44.73516 47055 ft 455 kts 269°
2026-04-23 11:52 16.01333 -44.80086 47083 ft 454 kts 269°
2026-04-23 11:52 16.01277 -44.86661 47057 ft 455 kts 269°
2026-04-23 11:53 16.01219 -44.93241 47059 ft 455 kts 269°
2026-04-23 11:53 16.01159 -44.99823 47052 ft 456 kts 269°
2026-04-23 11:54 16.01097 -45.06407 47056 ft 456 kts 269°
2026-04-23 11:54 16.01033 -45.12991 47053 ft 456 kts 269°
2026-04-23 11:55 16.00967 -45.19578 47056 ft 456 kts 269°
2026-04-23 11:55 16.00900 -45.26118 47068 ft 456 kts 269°
2026-04-23 11:56 16.00830 -45.32704 47076 ft 455 kts 268°
2026-04-23 11:56 16.00758 -45.39292 47052 ft 456 kts 268°
2026-04-23 11:57 16.00684 -45.45884 47061 ft 456 kts 268°
2026-04-23 11:57 16.00608 -45.52471 47062 ft 456 kts 268°
2026-04-23 11:58 16.00530 -45.59061 47052 ft 456 kts 268°
2026-04-23 11:58 16.00450 -45.65652 47062 ft 456 kts 268°
2026-04-23 11:59 16.00368 -45.72243 47048 ft 456 kts 268°
2026-04-23 11:59 16.00284 -45.78834 47050 ft 456 kts 268°
2026-04-23 12:00 16.00198 -45.85420 47054 ft 456 kts 268°
2026-04-23 12:00 16.00110 -45.92004 47055 ft 456 kts 268°
2026-04-23 12:01 16.00050 -45.98585 47045 ft 455 kts 271°
2026-04-23 12:01 16.01084 -46.05082 47065 ft 456 kts 281°
2026-04-23 12:02 16.02450 -46.11519 47076 ft 456 kts 280°
2026-04-23 12:02 16.03814 -46.17956 47068 ft 456 kts 281°
2026-04-23 12:03 16.05178 -46.24388 47066 ft 455 kts 280°
2026-04-23 12:03 16.06534 -46.30811 47066 ft 455 kts 280°
2026-04-23 12:04 16.07892 -46.37235 47067 ft 455 kts 280°
2026-04-23 12:04 16.09243 -46.43651 47067 ft 454 kts 280°
2026-04-23 12:05 16.10593 -46.50062 47061 ft 454 kts 280°
2026-04-23 12:05 16.11939 -46.56468 47063 ft 453 kts 280°
2026-04-23 12:06 16.13283 -46.62874 47059 ft 453 kts 280°
2026-04-23 12:06 16.15295 -46.72480 47065 ft 453 kts 280°
2026-04-23 12:07 16.16633 -46.78883 47070 ft 453 kts 280°
2026-04-23 12:07 16.17969 -46.85285 47067 ft 453 kts 280°
2026-04-23 12:08 16.19303 -46.91691 47062 ft 453 kts 280°
2026-04-23 12:08 16.20636 -46.98097 47069 ft 453 kts 280°
2026-04-23 12:09 16.21967 -47.04507 47060 ft 453 kts 280°
2026-04-23 12:09 16.23297 -47.10919 47074 ft 453 kts 280°
2026-04-23 12:10 16.24624 -47.17332 47073 ft 453 kts 280°
2026-04-23 12:10 16.25950 -47.23748 47063 ft 453 kts 280°
2026-04-23 12:11 16.27274 -47.30163 47069 ft 453 kts 279°
2026-04-23 12:11 16.28597 -47.36582 47068 ft 453 kts 279°
2026-04-23 12:12 16.29917 -47.42999 47066 ft 453 kts 279°
2026-04-23 12:12 16.31235 -47.49415 47070 ft 453 kts 279°
2026-04-23 12:13 16.32551 -47.55835 47065 ft 453 kts 279°
2026-04-23 12:13 16.33865 -47.62252 47060 ft 453 kts 279°
2026-04-23 12:14 16.35178 -47.68676 47061 ft 454 kts 279°
2026-04-23 12:14 16.36489 -47.75098 47066 ft 454 kts 279°
2026-04-23 12:15 16.37797 -47.81523 47062 ft 454 kts 279°
2026-04-23 12:15 16.39105 -47.87951 47062 ft 454 kts 279°
2026-04-23 12:16 16.40410 -47.94378 47063 ft 454 kts 279°
2026-04-23 12:16 16.41494 -47.99725 47057 ft 454 kts 279°
2026-04-23 12:17 16.42797 -48.06161 47058 ft 454 kts 279°
2026-04-23 12:17 16.44099 -48.12599 47055 ft 454 kts 279°
2026-04-23 12:18 16.45408 -48.19086 47057 ft 455 kts 279°
2026-04-23 12:18 16.46707 -48.25534 47059 ft 455 kts 279°
2026-04-23 12:19 16.48004 -48.31983 47061 ft 455 kts 279°
2026-04-23 12:19 16.49300 -48.38437 47063 ft 455 kts 279°
2026-04-23 12:20 16.50595 -48.44896 47064 ft 455 kts 279°
2026-04-23 12:20 16.51887 -48.51353 47063 ft 455 kts 279°
2026-04-23 12:21 16.53178 -48.57814 47060 ft 456 kts 279°
2026-04-23 12:21 16.54459 -48.64234 47068 ft 456 kts 279°
2026-04-23 12:22 16.55754 -48.70742 47060 ft 455 kts 279°
2026-04-23 12:22 16.57040 -48.77207 47066 ft 455 kts 279°
2026-04-23 12:23 16.58322 -48.83669 47066 ft 455 kts 279°
2026-04-23 12:23 16.59603 -48.90131 47067 ft 455 kts 279°
2026-04-23 12:24 16.60872 -48.96550 47064 ft 455 kts 279°
2026-04-23 12:24 16.62156 -49.03054 47059 ft 455 kts 279°
2026-04-23 12:25 16.63420 -49.09467 47059 ft 454 kts 278°
2026-04-23 12:25 16.64698 -49.15961 47067 ft 454 kts 278°
2026-04-23 12:26 16.65965 -49.22407 47068 ft 454 kts 278°
2026-04-23 12:26 16.67229 -49.28854 47063 ft 453 kts 278°
2026-04-23 12:27 16.68490 -49.35296 47060 ft 453 kts 278°
2026-04-23 12:27 16.69749 -49.41736 47050 ft 453 kts 278°
2026-04-23 12:28 16.71006 -49.48181 47052 ft 453 kts 278°
2026-04-23 12:28 16.72261 -49.54622 47051 ft 453 kts 278°
2026-04-23 12:29 16.73513 -49.61062 47053 ft 453 kts 278°
2026-04-23 12:29 16.74763 -49.67501 47055 ft 453 kts 278°
2026-04-23 12:30 16.76011 -49.73940 47068 ft 452 kts 278°
2026-04-23 12:30 16.77256 -49.80377 47049 ft 453 kts 278°
2026-04-23 12:31 16.78500 -49.86821 47052 ft 453 kts 278°
2026-04-23 12:31 16.79741 -49.93258 47063 ft 453 kts 278°
2026-04-23 12:32 16.80972 -49.99658 47066 ft 453 kts 278°
2026-04-23 12:32 16.82210 -50.06102 47062 ft 453 kts 278°
2026-04-23 12:33 16.83446 -50.12547 47059 ft 453 kts 278°
2026-04-23 12:33 16.84688 -50.19036 47058 ft 453 kts 278°
2026-04-23 12:34 16.85921 -50.25486 47058 ft 453 kts 278°
2026-04-23 12:34 16.87151 -50.31934 47051 ft 453 kts 278°
2026-04-23 12:35 16.88378 -50.38383 47048 ft 453 kts 278°
2026-04-23 12:35 16.89604 -50.44832 47047 ft 453 kts 278°
2026-04-23 12:36 16.90828 -50.51284 47044 ft 453 kts 278°
2026-04-23 12:36 16.92041 -50.57687 47045 ft 453 kts 278°
2026-04-23 12:37 16.93268 -50.64179 47041 ft 453 kts 278°
2026-04-23 12:37 16.94477 -50.70584 47048 ft 452 kts 278°
2026-04-23 12:38 16.95691 -50.77028 47074 ft 452 kts 278°
2026-04-23 12:38 16.96902 -50.83468 47046 ft 452 kts 278°
2026-04-23 12:39 16.98119 -50.89953 47048 ft 452 kts 278°
2026-04-23 12:39 16.99326 -50.96392 47059 ft 451 kts 278°
2026-04-23 12:40 17.00047 -51.02864 47043 ft 447 kts 268°
2026-04-23 12:40 17.00130 -51.09355 47063 ft 447 kts 269°
2026-04-23 12:41 17.00230 -51.15852 47040 ft 447 kts 268°
2026-04-23 12:41 17.00313 -51.22349 47042 ft 447 kts 268°
2026-04-23 12:42 17.00404 -51.28847 47045 ft 447 kts 268°
2026-04-23 12:42 17.00487 -51.35346 47046 ft 447 kts 268°
2026-04-23 12:43 17.00571 -51.41846 47041 ft 447 kts 268°
2026-04-23 12:43 17.00651 -51.48348 47044 ft 448 kts 268°
2026-04-23 12:44 17.00730 -51.54807 47045 ft 448 kts 268°
2026-04-23 12:44 17.00807 -51.61311 47042 ft 448 kts 268°
2026-04-23 12:45 17.00882 -51.67817 47042 ft 448 kts 268°
2026-04-23 12:45 17.00954 -51.74322 47054 ft 448 kts 268°
2026-04-23 12:46 17.01025 -51.80835 47057 ft 448 kts 268°
2026-04-23 12:46 17.01094 -51.87349 47038 ft 449 kts 268°
2026-04-23 12:47 17.01161 -51.93875 47041 ft 449 kts 268°
2026-04-23 12:47 17.01225 -52.00400 47046 ft 449 kts 268°
2026-04-23 12:48 17.01288 -52.06931 47046 ft 450 kts 268°
2026-04-23 12:48 17.01349 -52.13468 47051 ft 450 kts 268°
2026-04-23 12:49 17.01407 -52.20001 47051 ft 450 kts 268°
2026-04-23 12:49 17.01463 -52.26540 47042 ft 450 kts 268°
2026-04-23 12:50 17.01518 -52.33083 47036 ft 451 kts 268°
2026-04-23 12:50 17.01570 -52.39631 47036 ft 451 kts 268°
2026-04-23 12:51 17.01620 -52.46178 47042 ft 451 kts 268°
2026-04-23 12:51 17.01668 -52.52722 47055 ft 450 kts 268°
2026-04-23 12:52 17.01715 -52.59269 47040 ft 451 kts 268°
2026-04-23 12:52 17.01759 -52.65816 47042 ft 451 kts 268°
2026-04-23 12:53 17.01800 -52.72363 47035 ft 451 kts 268°
2026-04-23 12:53 17.01840 -52.78916 47041 ft 451 kts 268°
2026-04-23 12:54 17.01878 -52.85461 47053 ft 450 kts 268°
2026-04-23 12:54 17.01914 -52.92008 47039 ft 451 kts 268°
2026-04-23 12:55 17.01947 -52.98557 47037 ft 451 kts 267°
2026-04-23 12:55 17.01979 -53.05109 47038 ft 451 kts 267°
2026-04-23 12:56 17.02008 -53.11659 47043 ft 451 kts 267°
2026-04-23 12:56 17.02035 -53.18205 47044 ft 451 kts 267°
2026-04-23 12:57 17.02060 -53.24752 47048 ft 451 kts 267°
2026-04-23 12:57 17.02079 -53.30194 47046 ft 451 kts 267°
2026-04-23 12:58 17.02101 -53.36747 47029 ft 451 kts 267°
2026-04-23 12:58 17.02120 -53.43297 47045 ft 451 kts 267°
2026-04-23 12:59 17.02137 -53.49849 47038 ft 451 kts 267°
2026-04-23 12:59 17.02152 -53.56399 47043 ft 451 kts 267°
2026-04-23 13:00 17.02165 -53.62950 47042 ft 451 kts 267°
2026-04-23 13:00 17.02176 -53.69502 47047 ft 451 kts 267°
2026-04-23 13:01 17.02184 -53.76055 47040 ft 451 kts 267°
2026-04-23 13:01 17.02191 -53.82612 47032 ft 451 kts 267°
2026-04-23 13:02 17.02196 -53.89165 47031 ft 451 kts 267°
2026-04-23 13:02 17.02198 -53.95719 47041 ft 451 kts 267°
2026-04-23 13:03 17.02198 -54.02268 47039 ft 451 kts 267°
2026-04-23 13:03 17.02197 -54.08816 47044 ft 450 kts 267°
2026-04-23 13:04 17.02193 -54.15355 47052 ft 450 kts 267°
2026-04-23 13:04 17.02187 -54.21894 47042 ft 450 kts 267°
2026-04-23 13:05 17.02179 -54.28433 47026 ft 450 kts 267°
2026-04-23 13:05 17.02169 -54.34970 47032 ft 450 kts 267°
2026-04-23 13:06 17.02150 -54.44761 47039 ft 449 kts 267°
2026-04-23 13:07 17.02134 -54.51284 47042 ft 449 kts 267°
2026-04-23 13:07 17.02117 -54.57807 47039 ft 449 kts 267°
2026-04-23 13:08 17.02097 -54.64329 47038 ft 449 kts 267°
2026-04-23 13:08 17.02076 -54.70844 47034 ft 448 kts 267°
2026-04-23 13:09 17.02052 -54.77358 47036 ft 448 kts 267°
2026-04-23 13:09 17.02027 -54.83868 47041 ft 448 kts 267°
2026-04-23 13:10 17.01999 -54.90372 47042 ft 448 kts 267°
2026-04-23 13:10 17.01969 -54.96873 47041 ft 447 kts 267°
2026-04-23 13:11 17.01937 -55.03371 47044 ft 447 kts 267°
2026-04-23 13:11 17.01904 -55.09867 47040 ft 447 kts 267°
2026-04-23 13:12 17.01868 -55.16323 47035 ft 447 kts 267°
2026-04-23 13:12 17.01830 -55.22816 47035 ft 447 kts 267°
2026-04-23 13:13 17.01790 -55.29308 47054 ft 447 kts 267°
2026-04-23 13:13 17.01748 -55.35804 47031 ft 447 kts 267°
2026-04-23 13:14 17.01704 -55.42294 47042 ft 447 kts 267°
2026-04-23 13:14 17.01657 -55.48830 47021 ft 447 kts 267°
2026-04-23 13:15 17.01609 -55.55321 47043 ft 447 kts 267°
2026-04-23 13:15 17.01559 -55.61812 47036 ft 447 kts 267°
2026-04-23 13:16 17.01507 -55.68300 47040 ft 447 kts 267°
2026-04-23 13:16 17.01452 -55.74785 47043 ft 447 kts 267°
2026-04-23 13:17 17.01396 -55.81271 47046 ft 446 kts 267°
2026-04-23 13:17 17.01337 -55.87765 47035 ft 447 kts 267°
2026-04-23 13:18 17.01277 -55.94259 47026 ft 447 kts 267°
2026-04-23 13:18 17.01214 -56.00709 47024 ft 447 kts 267°
2026-04-23 13:19 17.01149 -56.07242 47044 ft 447 kts 267°
2026-04-23 13:19 17.01083 -56.13740 47018 ft 447 kts 267°
2026-04-23 13:20 17.01014 -56.20237 47023 ft 447 kts 267°
2026-04-23 13:20 17.00943 -56.26735 47032 ft 447 kts 267°
2026-04-23 13:21 17.00870 -56.33233 47024 ft 447 kts 267°
2026-04-23 13:21 17.00795 -56.39733 47029 ft 447 kts 267°
2026-04-23 13:22 17.00718 -56.46225 47037 ft 447 kts 267°
2026-04-23 13:22 17.00639 -56.52678 47021 ft 447 kts 267°
2026-04-23 13:23 17.00558 -56.59177 47025 ft 447 kts 267°
2026-04-23 13:23 17.00474 -56.65674 47021 ft 447 kts 267°
2026-04-23 13:24 17.00389 -56.72170 47021 ft 447 kts 267°
2026-04-23 13:24 17.00302 -56.78664 47024 ft 447 kts 267°
2026-04-23 13:25 17.00212 -56.85158 47025 ft 447 kts 267°
2026-04-23 13:25 17.00121 -56.91647 47031 ft 447 kts 267°
2026-04-23 13:26 17.00027 -56.98134 47035 ft 446 kts 267°
2026-04-23 13:26 17.00029 -57.04617 47034 ft 446 kts 268°
2026-04-23 13:27 17.00049 -57.11101 47032 ft 446 kts 268°
2026-04-23 13:27 17.00080 -57.17581 47034 ft 446 kts 268°
2026-04-23 13:28 17.00103 -57.24065 47026 ft 447 kts 268°
2026-04-23 13:28 17.00127 -57.30557 47025 ft 447 kts 268°
2026-04-23 13:29 17.00147 -57.37045 47019 ft 447 kts 268°
2026-04-23 13:29 17.00167 -57.43532 47045 ft 446 kts 268°
2026-04-23 13:30 17.00183 -57.50059 47031 ft 446 kts 268°
2026-04-23 13:30 17.00198 -57.56546 47029 ft 447 kts 268°
2026-04-23 13:31 17.00211 -57.63033 47025 ft 447 kts 268°
2026-04-23 13:31 17.00222 -57.69525 47029 ft 447 kts 268°
2026-04-23 13:32 17.00230 -57.76021 47024 ft 447 kts 268°
2026-04-23 13:32 17.00237 -57.82517 47017 ft 447 kts 268°
2026-04-23 13:33 17.00241 -57.88972 47032 ft 447 kts 268°
2026-04-23 13:33 17.00244 -57.95474 47018 ft 448 kts 268°
2026-04-23 13:34 17.00244 -58.01984 47027 ft 448 kts 268°
2026-04-23 13:34 17.00242 -58.08538 47014 ft 448 kts 268°
2026-04-23 13:35 17.00239 -58.15053 47020 ft 449 kts 268°
2026-04-23 13:35 17.00233 -58.21571 47024 ft 449 kts 268°
2026-04-23 13:36 17.00225 -58.28095 47029 ft 449 kts 268°
2026-04-23 13:36 17.00215 -58.34614 47041 ft 449 kts 268°
2026-04-23 13:37 17.00203 -58.41138 47037 ft 449 kts 268°
2026-04-23 13:37 17.00189 -58.47626 47020 ft 450 kts 268°
2026-04-23 13:38 17.00173 -58.54204 47019 ft 450 kts 268°
2026-04-23 13:38 17.00157 -58.59634 47037 ft 450 kts 268°
2026-04-23 13:39 17.00137 -58.66172 47023 ft 450 kts 268°
2026-04-23 13:39 17.00115 -58.72711 47030 ft 450 kts 268°
2026-04-23 13:40 17.00091 -58.79257 47027 ft 451 kts 268°
2026-04-23 13:40 17.00065 -58.85802 47020 ft 451 kts 268°
2026-04-23 13:41 17.00036 -58.92349 47035 ft 451 kts 268°
2026-04-23 13:41 17.00006 -58.98887 47032 ft 451 kts 268°
2026-04-23 13:42 17.00015 -59.05439 47041 ft 450 kts 269°
2026-04-23 13:42 17.00063 -59.11982 47033 ft 451 kts 268°
2026-04-23 13:43 17.00077 -59.18526 47040 ft 450 kts 269°
2026-04-23 13:43 17.00110 -59.25073 47039 ft 450 kts 268°
2026-04-23 13:44 17.00129 -59.31617 47024 ft 451 kts 268°
2026-04-23 13:44 17.00152 -59.38159 47021 ft 450 kts 268°
2026-04-23 13:45 17.00169 -59.44700 47043 ft 450 kts 268°
2026-04-23 13:45 17.00186 -59.51241 47023 ft 451 kts 268°
2026-04-23 13:46 17.00201 -59.57788 47023 ft 451 kts 268°
2026-04-23 13:46 17.00213 -59.64335 47034 ft 450 kts 268°
2026-04-23 13:47 17.00224 -59.70878 47036 ft 451 kts 268°
2026-04-23 13:47 17.00232 -59.77348 47035 ft 451 kts 268°
2026-04-23 13:48 17.00238 -59.83898 47036 ft 451 kts 268°
2026-04-23 13:48 17.00242 -59.90444 47032 ft 451 kts 268°
2026-04-23 13:49 17.00244 -59.97000 47037 ft 451 kts 268°
2026-04-23 13:49 17.00244 -60.03555 47039 ft 451 kts 268°
2026-04-23 13:50 17.00242 -60.10112 47042 ft 451 kts 268°
2026-04-23 13:50 17.00237 -60.16668 47042 ft 451 kts 268°
2026-04-23 13:51 17.00231 -60.23227 47042 ft 451 kts 268°
2026-04-23 13:51 17.00223 -60.29785 47041 ft 451 kts 268°
2026-04-23 13:52 17.00212 -60.36346 47040 ft 452 kts 268°
2026-04-23 13:52 17.00199 -60.42906 47039 ft 452 kts 268°
2026-04-23 13:53 17.00185 -60.49468 47043 ft 452 kts 268°
2026-04-23 13:53 17.00168 -60.56032 47046 ft 452 kts 268°
2026-04-23 13:54 17.00149 -60.62592 47045 ft 452 kts 268°
2026-04-23 13:54 17.00128 -60.69153 47042 ft 452 kts 268°
2026-04-23 13:55 17.00104 -60.75721 46805 ft 456 kts 268°
2026-04-23 13:55 17.00091 -60.79050 46173 ft 457 kts 268°
2026-04-23 13:55 17.00079 -60.82357 45560 ft 454 kts 268°
2026-04-23 13:55 17.00066 -60.85646 44965 ft 452 kts 268°
2026-04-23 13:56 17.00051 -60.88929 44309 ft 452 kts 268°
2026-04-23 13:56 17.00037 -60.92211 43728 ft 453 kts 268°
2026-04-23 13:56 17.00022 -60.95510 43126 ft 455 kts 268°
2026-04-23 13:56 17.00093 -60.98821 42505 ft 459 kts 272°
2026-04-23 13:57 17.00582 -61.02122 41908 ft 463 kts 279°
2026-04-23 13:57 17.01419 -61.05386 41315 ft 466 kts 282°
2026-04-23 13:57 17.02290 -61.08658 40693 ft 468 kts 282°
2026-04-23 13:57 17.03145 -61.11946 40071 ft 470 kts 282°
2026-04-23 13:58 17.04004 -61.15248 39454 ft 472 kts 282°
2026-04-23 13:58 17.04880 -61.18565 38828 ft 474 kts 282°
2026-04-23 13:58 17.05758 -61.21893 38161 ft 476 kts 282°
2026-04-23 13:58 17.06625 -61.25205 37538 ft 465 kts 282°
2026-04-23 13:59 17.07466 -61.28415 36933 ft 456 kts 281°
2026-04-23 13:59 17.08299 -61.31608 36335 ft 452 kts 281°
2026-04-23 13:59 17.09123 -61.34760 35744 ft 447 kts 282°
2026-04-23 13:59 17.09940 -61.37880 35154 ft 443 kts 282°
2026-04-23 14:00 17.10475 -61.39929 34772 ft 440 kts 282°
2026-04-23 14:00 17.11546 -61.44032 33990 ft 434 kts 282°
2026-04-23 14:00 17.12335 -61.47060 33399 ft 430 kts 282°
2026-04-23 14:00 17.13119 -61.50068 32833 ft 428 kts 282°
2026-04-23 14:01 17.13898 -61.53058 32268 ft 424 kts 282°
2026-04-23 14:01 17.14670 -61.56025 31712 ft 422 kts 283°
2026-04-23 14:01 17.15435 -61.58966 31157 ft 419 kts 283°
2026-04-23 14:01 17.16199 -61.61903 30608 ft 416 kts 283°
2026-04-23 14:02 17.16955 -61.64814 30053 ft 414 kts 283°
2026-04-23 14:02 17.17705 -61.67702 29476 ft 410 kts 284°
2026-04-23 14:02 17.18449 -61.70566 28938 ft 407 kts 284°
2026-04-23 14:02 17.19186 -61.73407 28403 ft 403 kts 284°
2026-04-23 14:03 17.19916 -61.76226 27876 ft 400 kts 284°
2026-04-23 14:03 17.20640 -61.79021 27347 ft 397 kts 284°
2026-04-23 14:03 17.21358 -61.81795 26826 ft 394 kts 284°
2026-04-23 14:03 17.22142 -61.84529 26281 ft 392 kts 289°
2026-04-23 14:04 17.23450 -61.87018 25792 ft 391 kts 300°
2026-04-23 14:04 17.24927 -61.89409 25289 ft 389 kts 300°
2026-04-23 14:04 17.26382 -61.91780 24777 ft 386 kts 300°
2026-04-23 14:04 17.27811 -61.94138 24273 ft 383 kts 300°
2026-04-23 14:05 17.29236 -61.96486 23766 ft 380 kts 300°
2026-04-23 14:05 17.30656 -61.98810 23224 ft 378 kts 300°
2026-04-23 14:05 17.32068 -62.01124 22724 ft 376 kts 300°
2026-04-23 14:05 17.33469 -62.03427 22237 ft 375 kts 300°
2026-04-23 14:06 17.34864 -62.05722 21744 ft 373 kts 300°
2026-04-23 14:06 17.36255 -62.08006 21255 ft 371 kts 301°
2026-04-23 14:06 17.37639 -62.10282 20767 ft 370 kts 301°
2026-04-23 14:06 17.39017 -62.12548 20281 ft 368 kts 301°
2026-04-23 14:07 17.40388 -62.14805 19797 ft 367 kts 301°
2026-04-23 14:07 17.43116 -62.19294 18833 ft 364 kts 301°
2026-04-23 14:07 17.44472 -62.21529 18358 ft 363 kts 301°
2026-04-23 14:08 17.45821 -62.23751 17840 ft 360 kts 301°
2026-04-23 14:08 17.47163 -62.25962 17361 ft 358 kts 301°
2026-04-23 14:08 17.48495 -62.28158 16891 ft 356 kts 301°
2026-04-23 14:08 17.49820 -62.30343 16423 ft 355 kts 301°
2026-04-23 14:09 17.51137 -62.32516 15958 ft 353 kts 301°
2026-04-23 14:09 17.52448 -62.34678 15493 ft 351 kts 301°
2026-04-23 14:09 17.53751 -62.36830 15034 ft 349 kts 301°
2026-04-23 14:09 17.55048 -62.38971 14573 ft 347 kts 301°
2026-04-23 14:10 17.56333 -62.41095 14118 ft 345 kts 301°
2026-04-23 14:10 17.57615 -62.43213 13647 ft 343 kts 302°
2026-04-23 14:10 17.58889 -62.45317 13182 ft 341 kts 302°
2026-04-23 14:10 17.60152 -62.47406 12734 ft 338 kts 302°
2026-04-23 14:11 17.61405 -62.49479 12287 ft 336 kts 302°
2026-04-23 14:11 17.62651 -62.51541 11847 ft 328 kts 302°
2026-04-23 14:11 17.63834 -62.53496 11426 ft 307 kts 302°
2026-04-23 14:11 17.64926 -62.55342 11037 ft 291 kts 300°
2026-04-23 14:12 17.65689 -62.57272 11023 ft 288 kts 291°
2026-04-23 14:12 17.66390 -62.59221 11029 ft 285 kts 291°
2026-04-23 14:12 17.67104 -62.61160 11039 ft 283 kts 291°
2026-04-23 14:12 17.67813 -62.63074 11040 ft 281 kts 291°
2026-04-23 14:13 17.68521 -62.65001 11047 ft 284 kts 291°
2026-04-23 14:13 17.69230 -62.66935 11046 ft 285 kts 291°
2026-04-23 14:13 17.69940 -62.68869 11041 ft 285 kts 291°
2026-04-23 14:13 17.70650 -62.70805 11042 ft 285 kts 291°
2026-04-23 14:14 17.71363 -62.72747 10902 ft 285 kts 291°
2026-04-23 14:14 17.72075 -62.74691 10682 ft 285 kts 291°
2026-04-23 14:14 17.72786 -62.76629 10447 ft 284 kts 291°
2026-04-23 14:14 17.73493 -62.78560 10210 ft 283 kts 291°
2026-04-23 14:15 17.74201 -62.80492 9963 ft 283 kts 292°
2026-04-23 14:15 17.74906 -62.82419 9694 ft 282 kts 292°
2026-04-23 14:15 17.75608 -62.84336 9448 ft 281 kts 291°
2026-04-23 14:15 17.76307 -62.86246 9203 ft 280 kts 291°
2026-04-23 14:16 17.77003 -62.88151 8960 ft 279 kts 291°
2026-04-23 14:16 17.77699 -62.90052 8718 ft 279 kts 291°
2026-04-23 14:16 17.78392 -62.91948 8479 ft 278 kts 291°
2026-04-23 14:16 17.79082 -62.93837 8232 ft 277 kts 291°
2026-04-23 14:17 17.79770 -62.95721 7986 ft 276 kts 291°
2026-04-23 14:17 17.80455 -62.97598 7753 ft 275 kts 291°
2026-04-23 14:17 17.81138 -62.99470 7515 ft 274 kts 291°
2026-04-23 14:17 17.81819 -63.01336 7275 ft 273 kts 291°
2026-04-23 14:18 17.82497 -63.03194 7037 ft 272 kts 291°
2026-04-23 14:18 17.83174 -63.05050 6798 ft 272 kts 291°
2026-04-23 14:18 17.83848 -63.06899 6563 ft 271 kts 291°
2026-04-23 14:18 17.84293 -63.08121 6403 ft 271 kts 291°
2026-04-23 14:19 17.84965 -63.09965 6156 ft 270 kts 291°
2026-04-23 14:19 17.85634 -63.11802 5895 ft 269 kts 291°
2026-04-23 14:19 17.86299 -63.13630 5645 ft 268 kts 291°
2026-04-23 14:19 17.86963 -63.15453 5405 ft 267 kts 291°
2026-04-23 14:20 17.87623 -63.17268 5176 ft 266 kts 291°
2026-04-23 14:20 17.88488 -63.19648 4957 ft 256 kts 291°
2026-04-23 14:20 17.88910 -63.20808 4855 ft 250 kts 291°
2026-04-23 14:20 17.89722 -63.22383 4584 ft 247 kts 313°
2026-04-23 14:21 17.91183 -63.23194 4314 ft 234 kts 348°
2026-04-23 14:21 17.92779 -63.23307 4201 ft 229 kts
2026-04-23 14:21 17.94333 -63.23008 4118 ft 226 kts 14°
2026-04-23 14:21 17.95863 -63.22624 4056 ft 226 kts 14°
2026-04-23 14:22 17.97385 -63.22212 3955 ft 227 kts 16°
2026-04-23 14:22 17.98903 -63.21788 3718 ft 224 kts 16°
2026-04-23 14:22 18.00400 -63.21384 3408 ft 220 kts 15°
2026-04-23 14:22 18.01810 -63.20849 2999 ft 213 kts 34°
2026-04-23 14:23 18.02734 -63.19691 2700 ft 206 kts 64°
2026-04-23 14:23 18.03140 -63.18275 2458 ft 196 kts 80°
2026-04-23 14:23 18.03275 -63.17000 2247 ft 160 kts 83°
2026-04-23 14:23 18.03420 -63.15873 1674 ft 153 kts 85°
2026-04-23 14:24 18.03210 -63.14786 1071 ft 153 kts 111°
2026-04-23 14:24 18.03086 -63.13789 768 ft 135 kts 74°
2026-04-23 14:24 18.03568 -63.12971 508 ft 134 kts 54°
2026-04-23 14:24 18.03914 -63.12087 158 ft 129 kts 72°
2026-04-23 14:25 18.04048 -63.11213 27 ft 109 kts 81°
2026-04-23 14:25 18.04137 -63.10583 24 ft 59 kts 81°
2026-04-23 14:25 18.04195 -63.10178 24 ft 55 kts 81°
2026-04-23 14:25 18.04253 -63.09928 24 ft 18 kts 40°
2026-04-23 14:26 18.04250 -63.09851 24 ft 12 kts 196°
2026-04-23 14:26 18.04222 -63.09986 24 ft 29 kts 264°
2026-04-23 14:26 18.04190 -63.10207 24 ft 31 kts 261°
2026-04-23 14:26 18.04158 -63.10426 24 ft 30 kts 262°
2026-04-23 14:27 18.04128 -63.10643 26 ft 30 kts 262°
2026-04-23 14:27 18.04098 -63.10858 25 ft 30 kts 261°
2026-04-23 14:27 18.04117 -63.10991 24 ft 15 kts 335°
2026-04-23 14:27 18.04163 -63.11060 25 ft 12 kts 261°
2026-04-23 14:28 18.04209 -63.11107 27 ft 10 kts 342°
2026-04-23 14:28 18.04229 -63.11161 25 ft 8 kts 261°
2026-04-23 14:28 18.04219 -63.11224 25 ft 9 kts 261°
2026-04-23 14:28 18.04191 -63.11243 25 ft 5 kts 170°
2026-04-23 14:29 18.04177 -63.11240 25 ft 0 kts 169°